Location: Sungai Igah
(2.7333°N, 114.2500°E)
Time: 20:16:31
(UTC+00:00)

Cosmos 2082 Rocket - Pass Details

Date: 14 June 2021
Orbit: 832 x 854 km, 71.0° (Epoch: 26 July)

Event Time Altitude Azimuth Distance (km) Brightness Sun altitude
Exits shadow 19:39:21 16° 123° (ESE) 2,032 4.4 -35.7°
Maximum altitude 19:40:44 18° 105° (ESE) 1,950 4.4 -35.4°
Drops below altitude 10° 19:44:23 10° 64° (ENE) 2,435 5.4 -34.6°
Sets 19:47:35 0° 45° (NE) 3,365 6.3 -33.9°
